Погода в Бирюче

Россия / Белгородская область     50°31′47″N   38°25′23″E
темп.,
°C
ветер,
м/с
пор.,
м/с
влажн.,
%
обл.,
%
осадки,
мм/ч
давл.,
гПа
погр.,
м
21 апреля, ср
ср2100:00+9ююв4109599 0.8 1002512
03:00+9ю71287100 1.0 1002811
06:00+7з6895100 0.5 1004456
09:00+6з51089100 0.6 1009572
12:00+9юз6980100 0.1 10121355
15:00+13зюз8105899 0.5 10121760
18:00+11зюз6106334 0.4 1014841
21:00+8юз38835 0.4 1016168
22 апреля, чт
чт2200:00+6юз33899 0.0 101749
03:00+6ююз229190 0.4 101847
06:00+6юз23906 0.1 101949
09:00+11юз35655 0.1 1020601
12:00+14зюз45475 0.0 10211603
15:00+16зюз35405 0.0 10202107
18:00+15зюз234822 0.0 1020152
21:00+12ю3561100 0.0 1021105
23 апреля, пт
пт2300:00+11ююз356488 0.0 1020114
03:00+8ююз337512 0.0 102045
06:00+8ю358093 0.0 102190
09:00+13ю566378 0.0 1020550
12:00+16ююз674654 1.4 10192259
15:00+14ю485889 1.4 1018483
18:00+14ю595899 0.0 1016439
21:00+11ююв4117176 0.0 1016251
24 апреля, сб
сб2400:00+10ю5127498 0.0 1014306
03:00+9ююз51278100 0.2 1012395
06:00+9ююз61281100 0.1 1011687
09:00+4з71092100 1.4 1013697
12:00+6з6977100 0.4 10141140
15:00+12з8113998 0.7 10122859
18:00+9з7105649 0.4 10131404
21:00+6зюз3873100 0.6 1015197
25 апреля, вс
вс2500:00+5юз5984100 0.3 1015450
03:00+3юз488848 0.6 1015230
06:00+3зюз489495 0.0 1016299
09:00+7з466096 0.2 10161213
12:00+9зюз7846100 0.8 10162131
15:00+10з6843100 0.9 10162135
18:00+8з6854100 0.4 10161236
21:00+5зюз378039 0.6 1017253